Regional Weather Roundup
Issued by NWS

Home | Current Version | Previous Version | Graphics & Text | Print | Product List | Glossary On
Versions: 1 2 3 4 5 6 7 8 9 10 11 12 13 14 15 16 17 18 19 20 21 22 23 24 25 26 27 28 29 30 31 32 33 34 35 36 37 38 39 40 41 42 43 44 45 46 47 48 49 50
000
ASUS45 KPSR 282010
RWRAZ

ARIZONA REGIONAL HOURLY WEATHER ROUNDUP
NATIONAL WEATHER SERVICE PHOENIX AZ
100 PM MST SAT FEB 28 2015

NOTE: FAIR INDICATES FEW OR NO CLOUDS BELOW 12,000 FEET WITH NO
SIGNIFICANT WEATHER AND/OR OBSTRUCTIONS TO VISIBILITY.

AZZ001>003-036-282100-
NORTHWEST ARIZONA

CITY           SKY/WX    TMP DP  RH WIND       PRES   REMARKS
BULLHEAD CITY  PTSUNNY   66  37  34 S12       29.73F
KINGMAN        CLOUDY    55  36  48 S21       29.76F
$$

AZZ004>008-015-016-018-282100-
NORTH CENTRAL ARIZONA

CITY           SKY/WX    TMP DP  RH WIND       PRES   REMARKS
GRAND CANYON   LGT SNOW  33  32  96 SW18      29.76S VSB 3/4 WCI  22
PRESCOTT       PTSUNNY   51  28  41 SW26G37   29.82F
FLAGSTAFF      CLOUDY    37  28  70 SW17G31   29.80F WCI  27
PAYSON         LGT RAIN  43  41  93 S7G17     29.88F
PAGE           CLOUDY    44  35  70 NE3       29.71F
$$

AZZ009>014-017-282100-
NORTHEAST ARIZONA

CITY           SKY/WX    TMP DP  RH WIND       PRES   REMARKS
WINSLOW        CLOUDY    53  36  52 S25G38    29.77F
SAINT JOHNS    PTSUNNY   52  36  54 SW24G35   29.80S
WINDOW ROCK    LGT RAIN  38  35  89 SW10      29.79S WCI  31
SHOW LOW       MIX PCPN  39  37  93 SW31G41   29.82S WCI  27
$$

AZZ023-282100-
GREATER PHOENIX AREA

CITY           SKY/WX    TMP DP  RH WIND       PRES   REMARKS
PHOENIX        CLOUDY    67  43  41 SW10      29.82F
BUCKEYE        CLOUDY    66  45  45 S12       29.83F
GLENDALE       CLOUDY    66  46  48 S14G20    29.84F
LUKE AFB       PTSUNNY   66  47  50 SW15      29.82S
DEER VALLEY    PTSUNNY   65  43  44 SW10G22   29.82F
SCOTTSDALE     PTSUNNY   65  42  43 S16G22    29.84F
MESA-FALCON    PTSUNNY   64  43  45 S17       29.84S
MESA-GATEWAY   PTSUNNY   64  46  52 SW14G21   29.86F
CHANDLER       CLOUDY    66  46  48 S18G26    29.84F
$$

AZZ027-028-282100-
SOUTHWEST MARICOPA COUNTY AND PINAL COUNTY

CITY           SKY/WX    TMP DP  RH WIND       PRES   REMARKS
CASA GRANDE    CLOUDY    70  43  37 SW21G31   29.85F
GILA BEND      PTSUNNY   69  42  37 W17G26    29.83F
$$

AZZ503-504-507>509-282100-
SOUTHEAST ARIZONA

CITY           SKY/WX    TMP DP  RH WIND       PRES   REMARKS
TUCSON         PTSUNNY   70  44  39 SW16G24   29.90F
DAVIS-MONTHAN  SUNNY     68  45  42 W16G26    29.87F
RYAN FIELD       N/A     70  46  43 SW18G29   29.90F
NOGALES        PTSUNNY   66  40  38 SW22G31   29.93F
SIERRA VISTA   SUNNY     65  38  36 SW25G37   29.92F
DOUGLAS        SUNNY     68  38  33 SW32G40   29.91F
SAFFORD        CLOUDY    66  36  32 NW6       29.83F
$$

AZZ020-021-025-026-031-282100-
SOUTHWEST ARIZONA

CITY           SKY/WX    TMP DP  RH WIND       PRES   REMARKS
YUMA           PTSUNNY   74  44  34 W10G20    29.82F
$$

CAZ031-033-041-043-047-048-061-282100-
SOUTHERN CALIFORNIA

CITY           SKY/WX    TMP DP  RH WIND       PRES   REMARKS
DOWNTOWN L.A.  PTSUNNY   64  43  46 VRB3      29.86F
L.A. AIRPORT   PTSUNNY   60  45  57 W15       29.87S
SAN DIEGO      PTSUNNY   62  48  60 SW13      29.93F
BURBANK        MOSUNNY   60  40  47 S7        29.84F
ONTARIO        CLOUDY    58  43  57 SW10G22   29.86F
RIVERSIDE      CLOUDY    60  42  51 W12G17    29.86F
PALM SPRINGS   MOSUNNY   70  33  25 E15       29.79F
EL CENTRO NAS  MOSUNNY   71  40  32 SW30G40   29.83S
IMPERIAL       LGT RAIN  71  43  36 W22G29    29.81F
BLYTHE         MOSUNNY   72  37  28 SW23G31   29.78F
NEEDLES        PTSUNNY   70  32  24 SW17G28   29.73F
$$

NVZ020-UTZ003-282100-
SOUTHERN NEVADA-UTAH

CITY           SKY/WX    TMP DP  RH WIND       PRES   REMARKS
LAS VEGAS      MOSUNNY   59  26  28 S17G36    29.66S
SALT LAKE CITY CLOUDY    44  20  38 VRB5      29.69F
$$

NMZ009-TXZ055-282100-
NEW MEXICO-WEST TEXAS

CITY           SKY/WX    TMP DP  RH WIND       PRES   REMARKS
ALBUQUERQUE    PTSUNNY   33  24  69 NW5       29.93F WCI  29
EL PASO        MOSUNNY   53  28  38 SE7       29.95F
$$


........................KEY........................
SKY/WX - SKY CONDITION/WEATHER
TMP    - TEMPERATURE IN FAHRENHEIT
DP     - DEW POINT IN FAHRENHEIT
RH     - RELATIVE HUMIDITY IN PERCENT
WIND   - DIRECTION AND SPEED IN MILES PER HOUR (MPH)
VRB    - VARIABLE WIND DIRECTION
PRES   - MEAN SEA LEVEL PRESSURE IN INCHES OF MERCURY
         F - FALLING PRESSURE   R - RISING PRESSURE
         S - STEADY PRESSURE
VSB    - VISIBILITY IN MILES
HX     - HEAT INDEX IN FAHRENHEIT
WCI    - WIND CHILL INDEX IN FAHRENHEIT
TC     - TEMPERATURE IN CELSIUS WHICH IS ALSO KNOWN AS
         TEMPERATURE IN CENTIGRADE
AFB    - AIR FORCE BASE
         LUKE AFB IS LUKE AIR FORCE BASE
         DAVIS-MONTHAN IS DAVIS-MONTHAN AIR FORCE BASE
NAS    - NAVAL AIR STATION
         EL CENTRO NAS IS EL CENTRO NAVAL AIR STATION
N/A    - NOT AVAILABLE



USA.gov is the U.S. government's official web portal to all federal, state and local government web resources and services.